Volver al catálogo

KUIPER-00020

ActivoComunicacionesLEO
NORAD 63735·PAYLOAD·🇺🇸 United States

Lanzado Apr 28, 2025 desde Cape Canaveral Space Force Station

Loading…

Próximos Pases (próximas 24 horas)

TLE

ActualizadoSource: CelesTrak SupGP

Época: Sep 14, 2026, 22:04 UTC

1 63735C 25088M   26257.91987269 -.00001356  00000+0 -17757-3 0  2573
2 63735  51.9022 346.3375 0000408  90.5135 170.4924 14.79930450    11

Sigue KUIPER-00020 en tiempo real con AllMySat

Download on the App Store